Regional Weather Roundup
Issued by NWS Charleston, SC

Current Version | Previous Version | Graphics & Text | Print | Product List | Glossary On
Versions: 1 2 3 4 5 6 7 8 9 10 11 12 13 14 15 16 17 18 19 20 21 22 23 24 25 26 27 28 29 30 31 32 33 34 35 36 37 38 39 40 41 42 43 44 45 46 47 48 49 50
000
ASUS42 KCHS 021712
RWRCHS

REGIONAL WEATHER ROUNDUP
NATIONAL WEATHER SERVICE CHARLESTON SC
100 PM EDT SUN AUG 02 2015

NOTE: "FAIR" INDICATES FEW OR NO CLOUDS BELOW 12,000 FEET WITH NO
SIGNIFICANT WEATHER AND/OR OBSTRUCTIONS TO VISIBILITY.

NOT ALL STATIONS ARE QUALITY CONTROLLED BY THE NATIONAL
WEATHER SERVICE. USE DATA WITH CAUTION...ESPECIALLY
DEWPOINT OBSERVATIONS.

SCZ027-030-031-034>040-042>050-021800-
...SOUTHEAST SOUTH CAROLINA...

CITY           SKY/WX    TMP DP  RH WIND       PRES   REMARKS
N CHARLESTON   PTSUNNY   85  73  67 S12       29.94S THUNDER HX  91
WATERFRONT PRK   N/A     83  76  79 SE7       29.92S HX  91
MOUNT PLEASANT LGT RAIN  86  77  74 E8        29.94F HX  97
JOHNS ISLAND   FAIR      82  73  74 S8G16     29.95S
PINOPOLIS      NOT AVBL
MONCKS CORNER  FAIR      90  70  51 NE6       29.93F HX  95
SUMMERVILLE    PTSUNNY   86  73  66 SE7       29.95R THUNDER HX  93
BEAUFORT MCAS  CLOUDY    75  74  96 CALM      29.94F VSB 1
BEAUFORT ARPT  CLOUDY    79  75  89 CALM      29.94F
HILTON HEAD IS PTSUNNY   84  75  74 CALM      29.95S HX  92
WALTERBORO     PTSUNNY   90  72  55 E21       29.94S HX  96
ALLENDALE      PTSUNNY   90  73  58 VRB3G18   29.92F HX  98

...SOUTHERN MIDLANDS AND PEE DEE...

CITY           SKY/WX    TMP DP  RH WIND       PRES   REMARKS
GEORGETOWN     NOT AVBL
KINGSTREE      NOT AVBL
ORANGEBURG     MOSUNNY   90  69  50 NE8       29.93F HX  94
BARNWELL       FAIR      90  72  55 E9        29.94F HX  96
AIKEN          FAIR      91  61  35 E7        29.97F HX  91
MANNING        LGT RAIN  90  66  45 S8        29.92F HX  92
COLUMBIA       PTSUNNY   93  67  42 VRB5      29.93F HX  96
SUMTER         PTSUNNY   92  67  43 VRB5      29.91F HX  95
FLORENCE       SUNNY     92  65  40 NE8       29.94F HX  94
MYRTLE BEACH   MOSUNNY   88  73  62 S14       29.96F HX  96
N MYRTLE BEACH SUNNY     86  75  69 S12       29.95F HX  95

$$

GAZ063-065-086>088-099>101-113>116-118-119-134>141-150-021800-
...SOUTHEAST GEORGIA...

CITY           SKY/WX    TMP DP  RH WIND       PRES   REMARKS
SAVANNAH ARPT  CLOUDY    80  75  84 NE6       29.93F
HUNTER AAF     PTSUNNY   81  79  94 E3        29.90F
FORT STEWART   PTSUNNY   91  72  52 SE7       29.83F HX  98
STATESBORO     MOSUNNY   85  80  86 E5        29.92F HX  99
SYLVANIA       MOSUNNY   88  78  73 SE3       29.93F HX 102
CLAXTON        NOT AVBL

...CSRA...CENTRAL AND FAR SOUTHEAST GEORGIA...

CITY           SKY/WX    TMP DP  RH WIND       PRES   REMARKS
THOMSON        MOSUNNY   92  74  55 E8        29.98F HX 101
AUGUSTA-BUSH   MOSUNNY   90  73  57 SE9       29.92F HX  98
AUGUSTA-DANIEL MOSUNNY   88  71  57 E7        29.94F HX  94
SWAINSBORO     PTSUNNY   88  77  70 E7        29.94F HX 100
VIDALIA        PTSUNNY   82  73  74 E5        29.93F
EASTMAN        CLOUDY    85  76  74 SE6       29.94F HX  93
HAZLEHURST     PTSUNNY   84  76  74 E5        29.91F HX  93
ALMA           CLOUDY    83  73  72 E5        29.91F
WAYCROSS       CLOUDY    84  78  81 SE5       29.91S HX  95
JESUP          PTSUNNY   88  77  70 S5        29.91F HX 100
BAXLEY         PTSUNNY   86  73  66 E6        29.91F HX  93
BRUNSWICK      CLOUDY    84  73  70 SE12      29.92F HX  91
SAINT SIMONS   PTSUNNY   81  75  82 VRB6      29.92S

$$

SCZ027-028-034-036>038-045-046-048>050-GAZ119-141-021800-
...LAKE AND SUPPLEMENTAL COASTAL OBSERVATIONS...

STATION/POSITION TIME  TEMP    WIND        PRES    WAVE   SWELL
                       AIR SEA DIR/SP/G            HT/PER HT/PER/DIR
                 (UTC) (F)     (DEG/KT/KT) (MB)    (FT/S) (FT/S/D)
UPR LAKE MARION  NOT AVBL
WINYAH BAY       NOT AVBL
LAKE MURRAY      1600   88     100/  2/  5 1013.5S
ACE BASIN NERRS  NOT AVBL
FORT PULASKI     1600   78 86   10/  3/  4 1014.2F
SAPELO ISLAND    1600   80     130/  3     1013.0S

$$

ANZ835-935-AMZ111-154-330-350-352-354-370-450-454-472-021800-
...C-MAN AND BUOY OBSERVATIONS...

STATION/POSITION TIME  TEMP    WIND        PRES    WAVE   SWELL
                       AIR SEA DIR/SP/G            HT/PER HT/PER/DIR
                 (UTC) (F)     (DEG/KT/KT) (MB)    (FT/S) (FT/S/D)
BUOY 41004       1650   79 83  120/  6/ 10 1014.3F   4/ 7   3/ 7
BUOY 41008       1650   80 83  180/ 12/ 14 1013.6R   3/ 5   2/150/ 6
FOLLY BEACH CMAN 1600   83     160/  7/  8 1014.4R
CAPERS NEARSHORE 1608   82      90/ 10/ 14 1014.3R
FRIPP NEARSHORE  1600   81     190/  6/  8 1013.8R


STATION/POSITION TIME  TEMP    WIND        PRES    WAVE   SWELL
                       AIR SEA DIR/SP/G            HT/PER HT/PER/DIR
                 (UTC) (F)     (DEG/KT/KT) (MB)    (FT/S) (FT/S/D)
5E ST. MARYS GA  1621      83                N/A     3/ 5   2/100/12
FRYING PAN BUOY  1650   83 85  170/  2/  4 1015.0F   5/ 7   5/170/ 7
BUOY 41025       1650   83 86  170/ 10/ 12 1014.0F   3/ 8   3/180/ 8
CAPE LOOKOUT NC  1600   82     160/  6/  7 1014.0S
BUOY 41002       1650   83 81  230/ 14/ 16 1017.0R   7/ 8   5/270/ 8
BUOY 41010       1620   83 84  160/ 14/ 14 1016.2S
ST AUGUSTINE FL  1700   86 81  190/ 16/ 20 1013.6F


$$



USA.gov is the U.S. government's official web portal to all federal, state and local government web resources and services.